User: anonymous   Login
Location: Long Geng
(2.6167°N, 114.1333°E)
Time: 05:40:12
(UTC+00:00)
Language:

ARIANE 5 R/B - Orbit

View from above orbital plane
View from above orbital plane
View from above satellite
View from above satellite

Ground track
Ground track

The orbit data is extracted from the following two-line orbital elements,

1 28913U 05049C   21210.48972058 -.00000053  00000-0  73415-3 0  9992
2 28913   3.8652 265.1903 7138518  91.3644   5.6205  2.24863521128243
Epoch (UTC): 29 July 2021 11:45:11
Eccentricity: 0.7138518
inclination: 3.8652°
perigee height: 664 km
apogee height: 35800 km
right ascension of ascending node: 265.1903°
argument of perigee: 91.3644°
revolutions per day: 2.24863521
mean anomaly at epoch: 5.6205°
orbit number at epoch: 12824

The dashed part of the orbit path shows where the satellite is in the earth's shadow,  

DLR